Location: Billmuthausen
(50.2833°N, 10.7833°E)
Time: 10:18:11
(UTC+00:00)

Daily predictions for brighter satellites

Satellite Brightness Start Highest point End
(mag) Time Altitude Azimuth Time Altitude Azimuth Time Altitude Azimuth
CZ-2C R/B 3.3 18:09:06 10° SE 18:13:52 45° ENE 18:18:29 10° N
STARLINK-1130 (DARKSAT) 3.9 18:10:57 10° WNW 18:15:05 62° N 18:19:12 10° E
STARLINK-1082 3.7 18:11:10 10° WNW 18:15:12 77° SSW 18:19:14 10° ESE
STARLINK-1232 3.7 18:12:52 10° SSW 18:15:42 32° SE 18:18:33 10° E
Cosmos 1048 Rocket 3.9 18:10:56 10° SSW 18:16:02 71° ESE 18:21:13 10° NNE
STARLINK-1217 3.7 18:13:19 10° SSW 18:16:09 32° SE 18:19:00 10° E
STARLINK-1208 3.7 18:13:44 10° SSW 18:16:35 33° SE 18:19:28 10° E
STARLINK-1229 3.7 18:14:11 10° SSW 18:17:02 33° SE 18:19:54 10° E
STARLINK-1271 3.7 18:14:39 10° SSW 18:17:30 33° SSE 18:20:23 10° E
STARLINK-1270 3.7 18:15:06 10° SSW 18:17:57 33° SE 18:20:49 10° E
Meteor 1-22 Rocket 4.4 18:13:12 10° SSE 18:18:12 45° E 18:23:15 10° NNE
STARLINK-1154 3.7 18:15:32 10° SSW 18:18:23 34° SSE 18:21:15 10° E
STARLINK-1197 3.6 18:16:26 10° SSW 18:19:17 34° SSE 18:22:10 10° E
Resurs 01 Rocket 3.2 18:16:24 10° ESE 18:19:22 18° ENE 18:22:20 10° NNE
STARLINK-1189 3.6 18:16:52 10° SW 18:19:45 34° SSE 18:22:38 10° E
STARLINK-1100 3.7 18:15:43 10° WNW 18:19:46 74° SSW 18:23:47 10° ESE
Cosmos 1939 Rocket 4.4 18:16:13 10° S 18:20:00 41° W 18:23:44 10° NNW
STARLINK-1084 3.9 18:15:57 10° WNW 18:20:04 63° N 18:24:12 10° E
STARLINK-1187 3.5 18:17:38 10° SW 18:20:34 39° SSE 18:23:32 10° ENE
STARLINK-1188 3.6 18:17:45 10° SW 18:20:38 35° SSE 18:23:31 10° E
STARLINK-1216 4.5 18:17:09 10° SSW 18:20:39 29° SE 18:24:09 10° E
Cosmos 371 Rocket 4.2 18:15:59 10° NNW 18:20:42 54° WSW 18:25:23 10° S
STARLINK-1198 3.6 18:18:00 10° SW 18:20:53 35° SSE 18:23:46 10° E
STARLINK-1235 3.3 18:18:14 10° SW 18:21:15 43° SSE 18:24:16 10° ENE
USA 81 4.0 18:16:30 10° N 18:21:48 73° E 18:27:04 10° SSE
Cosmos 494 Rocket 4.2 18:17:28 10° S 18:22:24 49° ESE 18:27:25 10° NNE
STARLINK-1199 3.6 18:19:40 10° SW 18:22:34 36° SSE 18:25:31 10° ENE
STARLINK-1191 3.6 18:20:07 10° SW 18:23:03 37° SSE 18:25:59 10° ENE
CZ-4C R/B 3.7 18:18:01 10° W 18:23:07 37° NNW 18:29:10 10° NE
Cosmos 1733 3.4 18:19:47 10° SSE 18:23:24 45° E 18:27:02 10° NNE
STARLINK-1210 3.5 18:20:34 10° SW 18:23:28 37° SSE 18:26:25 10° ENE
STARLINK-1221 3.5 18:21:01 10° SW 18:23:57 37° SSE 18:26:54 10° ENE
STARLINK-1083 3.7 18:20:19 10° WNW 18:24:22 70° SSW 18:28:23 10° ESE
STARLINK-1219 3.5 18:21:27 10° SW 18:24:23 37° SSE 18:27:20 10° ENE
Cosmos 1709 Rocket 4.2 18:18:31 10° N 18:24:37 52° ENE 18:30:36 10° SSE
STARLINK-67 2.5 18:22:10 10° SW 18:24:43 57° SSE 18:27:16 10° ENE
STARLINK-1222 3.5 18:21:54 10° SW 18:24:49 38° SSE 18:27:47 10° ENE
STARLINK-1098 3.9 18:20:55 10° WNW 18:25:03 64° N 18:29:11 10° E
STARLINK-1211 3.5 18:22:21 10° SW 18:25:16 38° SSE 18:28:14 10° ENE
STARLINK-1237 4.4 18:21:42 10° SSW 18:25:16 31° SE 18:28:51 10° E
FREGAT/IRIS 2.7 18:23:07 10° SSE 18:25:44 45° ENE 18:28:23 10° N
STARLINK-1214 3.5 18:22:47 10° SW 18:25:44 38° SSE 18:28:41 10° ENE
Cosmos 1331 Rocket 4.0 18:20:55 10° NNW 18:26:08 85° ENE 18:31:17 10° SSE
STARLINK-1245 3.5 18:23:17 10° SW 18:26:12 38° SSE 18:29:09 10° ENE
STARLINK-1238 3.5 18:23:42 10° SW 18:26:39 39° SSE 18:29:37 10° ENE
SPOT 3 Rocket 4.2 18:21:55 10° SE 18:26:43 38° ENE 18:31:31 10° N
Cosmos 1674 3.1 18:23:36 10° NNW 18:27:21 65° W 18:31:03 10° S
STARLINK-1205 3.4 18:24:37 10° SW 18:27:33 39° SSE 18:30:31 10° ENE
STARLINK-1204 3.4 18:25:03 10° SW 18:28:00 39° SSE 18:30:57 10° ENE
STARLINK-1125 3.8 18:24:56 10° WNW 18:28:58 67° SSW 18:32:58 10° SE
SL-14 R/B 3.6 18:25:11 10° N 18:29:09 50° ENE 18:33:05 10° SSE
Cosmos 2219 Rocket 3.5 18:24:06 10° SW 18:29:32 45° NW 18:34:57 10° NNE
STARLINK-1202 4.3 18:26:14 10° SSW 18:29:51 33° SE 18:33:30 10° ENE
STARLINK-1123 3.8 18:25:56 10° WNW 18:30:04 66° N 18:34:04 11° E
KORONAS-FOTON 4.3 18:26:39 10° NNW 18:30:29 66° W 18:34:14 10° S
STARLINK-1109 3.8 18:29:14 10° WNW 18:33:15 64° SSW 18:37:10 11° SE
STARLINK-1246 4.2 18:31:06 10° SSW 18:34:50 36° SE 18:38:34 10° ENE
STARLINK-1097 3.8 18:30:54 10° WNW 18:35:03 68° NNE 18:38:50 12° E
Cosmos 1943 Rocket 2.8 18:31:23 10° NNW 18:36:33 38° NE 18:41:19 12° ESE
MONITOR-E 3.7 18:35:13 10° SSE 18:37:50 63° ENE 18:40:28 10° N
STARLINK-1091 3.9 18:33:54 10° WNW 18:37:54 60° SSW 18:41:39 11° SE
Cosmos 1980 3.9 18:33:15 10° SSW 18:38:56 82° WNW 18:44:41 10° NNE
Cosmos 1766 3.4 18:35:05 10° S 18:39:05 85° W 18:43:06 10° N
STARLINK-1099 3.8 18:35:54 10° WNW 18:40:02 70° NNE 18:43:38 13° E
S3M 4.1 18:34:39 10° S 18:41:03 90° NW 18:47:30 10° N
Ariane Rocket 3.2 18:37:26 10° SSE 18:42:31 79° WSW 18:47:37 10° NNW
Cosmos 2084 4.2 18:38:50 10° WSW 18:43:16 59° NW 18:47:43 10° NE
STARLINK-1224 4.0 18:39:57 10° SW 18:43:44 40° SE 18:47:24 11° ENE
STARLINK-1104 3.7 18:40:53 10° WNW 18:45:02 72° NNE 18:48:25 15° E
Cosmos 1455 Rocket 3.0 18:41:43 10° S 18:46:03 78° E 18:50:25 10° NNE
TSX-5 4.4 18:41:46 10° NNW 18:47:32 67° NE 18:51:27 13° SE
STARLINK-1225 3.9 18:44:35 10° SW 18:48:25 43° SE 18:51:55 12° ENE
STARLINK-1144 3.7 18:45:51 10° WNW 18:50:00 74° NNE 18:53:11 17° E
STARLINK-1203 3.8 18:46:32 10° SW 18:50:19 46° SSE 18:53:42 13° ENE
Cosmos 1892 Rocket 4.4 18:46:04 10° NNW 18:50:27 54° W 18:54:49 10° S
STARLINK-1072 4.1 18:47:08 10° WNW 18:51:01 50° SSW 18:54:14 14° SE
Cosmos 1626 Rocket 3.6 18:47:44 10° N 18:52:08 60° ENE 18:56:27 10° SSE
SL-16 R/B 2.3 18:46:57 10° S 18:52:24 51° ESE 18:57:52 10° NE
STARLINK-1230 3.9 18:49:10 10° SW 18:53:01 46° SSE 18:56:22 13° ENE
Cosmos 2333 Rocket 4.1 18:48:02 10° WSW 18:53:08 33° NW 18:58:14 10° NNE
USA 186 2.2 18:51:31 10° S 18:54:57 71° WSW 18:58:21 10° NNW
STARLINK-1103 3.7 18:50:50 10° WNW 18:54:59 76° NNE 18:57:58 18° ESE
Cosmos 1626 2.1 18:51:21 10° N 18:55:05 89° W 18:58:47 10° S
STARLINK-1096 4.2 18:51:36 10° WNW 18:55:27 47° SSW 18:58:31 15° SE
Cosmos 2084 Rocket 4.0 18:51:21 10° NW 18:55:42 49° NE 18:58:47 18° ESE
Cosmos 1953 3.4 18:53:53 15° SE 18:56:04 24° E 18:59:18 10° NE
STARLINK-1234 2.6 18:53:15 10° WSW 18:56:14 76° SSE 18:58:25 17° ENE
STARLINK-1243 3.8 18:53:49 10° SW 18:57:42 49° SSE 19:00:53 15° ENE
Okean 1-7 Rocket 4.5 18:54:05 10° NNW 18:58:22 51° W 19:02:37 10° S
NOSS 2-1 (E) 4.2 18:55:40 10° WSW 18:58:59 46° NW 19:02:51 10° NE
Cosmos 1602 Rocket 3.7 18:55:16 10° N 18:59:41 57° ENE 19:03:55 11° SSE
STARLINK-1079 4.3 18:56:05 10° WNW 18:59:55 44° SSW 19:02:49 16° SE
STARLINK-1101 3.6 18:55:50 10° WNW 18:59:59 79° NNE 19:02:46 20° ESE
Aureole 3 4.2 18:57:31 10° SSE 19:01:14 36° E 19:05:52 10° NNE
STARLINK-1236 3.7 18:58:26 10° SW 19:02:21 52° SSE 19:05:22 16° ENE
STARLINK-1116 4.4 19:00:35 10° WNW 19:04:22 41° SW 19:07:08 17° SSE
ATLAS 2AS CENTAUR R/B 3.8 18:57:13 10° NW 19:04:31 40° NNE 19:10:16 15° E
STARLINK-1102 3.6 19:00:48 10° WNW 19:04:58 82° NNE 19:07:32 22° ESE
DMSP B5D2-2 4.5 19:00:13 10° NNE 19:05:08 40° E 19:10:02 10° SSE
H-2A R/B 2.6 19:01:38 10° S 19:06:53 61° WSW 19:12:03 10° NNW
Aureole 2 Rocket 3.3 19:06:05 10° N 19:09:19 34° ENE 19:10:31 26° E
STARLINK-1111 3.6 19:05:47 10° WNW 19:09:56 85° NNE 19:12:19 25° ESE
STARLINK-1269 3.6 19:07:46 10° SW 19:11:44 59° SSE 19:14:25 19° ENE
Terra 3.9 19:10:44 10° ENE 19:12:02 11° NE 19:13:36 10° NNE
Cosmos 1544 Rocket 3.8 19:09:06 10° SSW 19:13:30 75° WNW 19:17:57 10° N
ERBS 3.5 19:10:30 10° W 19:13:44 41° NNW 19:16:57 10° NE
USA 234 3.3 19:07:39 10° ENE 19:14:05 56° SE 19:20:29 10° SW
Cosmos 2297 4.2 19:09:13 10° NW 19:14:48 61° WSW 19:20:23 10° SSE
CZ-2C R/B 3.7 19:10:04 10° NNE 19:14:50 64° ESE 19:19:30 10° S
STARLINK-1073 3.6 19:10:46 10° WNW 19:14:56 89° NNE 19:17:06 27° ESE
STARLINK-1200 3.5 19:12:25 10° SW 19:16:25 62° SSE 19:18:56 21° ENE
Cosmos 1703 4.5 19:13:53 10° NNE 19:17:10 25° ENE 19:17:47 24° E
Cosmos 1825 Rocket 4.2 19:14:53 10° N 19:19:02 37° ENE 19:20:41 27° ESE
STARLINK-1121 3.5 19:15:45 10° WNW 19:19:55 88° SSW 19:21:53 30° ESE
STARLINK-1192 3.5 19:17:03 10° SW 19:21:04 66° SSE 19:23:24 23° ENE
Cosmos 2237 Rocket 3.3 19:17:25 10° SW 19:22:48 46° NW 19:28:15 10° NNE
COSMOS 2455 4.4 19:19:24 10° NNW 19:24:10 23° NNE 19:28:01 13° ENE
Cosmos 1302 Rocket 4.5 19:19:18 10° NNW 19:24:30 61° WSW 19:29:41 10° S
STARLINK-1106 3.5 19:20:43 10° WNW 19:24:53 84° SSW 19:26:39 33° ESE
STARLINK-1244 3.5 19:21:49 10° WSW 19:25:50 70° SSE 19:28:01 26° ENE
STARLINK-1201 2.9 19:22:55 10° WSW 19:26:11 88° NNW 19:27:31 33° ENE
CZ-2C R/B 2.7 19:21:46 10° NNE 19:26:51 51° E 19:31:52 10° S
Cosmos 1992 Rocket 4.0 19:22:32 10° NNW 19:27:45 65° ENE 19:30:33 27° SE
Cosmos 2184 Rocket 4.1 19:21:31 10° N 19:27:49 61° ENE 19:32:14 20° SSE
Cosmos 1758 Rocket 3.7 19:24:04 10° N 19:28:22 52° ENE 19:30:09 31° SE
STARLINK-1112 3.6 19:25:43 10° WNW 19:29:52 80° SSW 19:31:27 37° ESE
Cosmos 1269 Rocket 4.4 19:24:36 10° SSW 19:29:53 69° WNW 19:35:12 10° NNE
STARLINK-1138 3.4 19:26:30 10° WSW 19:30:32 73° SSE 19:32:32 28° ENE
STARLINK-1209 2.9 19:28:38 10° W 19:31:32 68° NNW 19:32:14 45° NE
STARLINK-1228 2.9 19:29:37 10° W 19:32:29 67° NNW 19:33:08 46° NE
NOSS 2-2 (C) 4.5 19:27:15 10° NW 19:32:45 86° NE 19:37:14 25° SE
Cosmos 1953 Rocket 4.2 19:30:29 10° N 19:34:38 37° ENE 19:35:32 34° E
STARLINK-1128 3.6 19:30:43 10° WNW 19:34:51 77° SSW 19:36:15 40° SE
ARGOS 4.3 19:29:58 10° S 19:35:06 44° W 19:40:16 10° NNW
STARLINK-1143 3.4 19:31:16 10° WSW 19:35:19 77° SSE 19:37:07 32° ENE
SL-8 R/B 3.7 19:31:23 10° W 19:36:09 70° S 19:38:02 36° ESE
Cosmos 2251 Rocket 3.8 19:31:36 10° S 19:36:42 46° ESE 19:41:50 10° NE
SL-24 R/B 4.1 19:31:57 10° NNE 19:36:47 87° WNW 19:40:56 10° SSW
Cosmos 1656 Rocket 4.3 19:33:36 10° NNW 19:39:02 43° NE 19:41:14 30° E
STARLINK-1113 3.6 19:35:41 10° WNW 19:39:50 73° SSW 19:41:02 44° SE
Cosmos 1470 3.4 19:38:34 10° SSW 19:42:22 55° WNW 19:46:14 10° N
Cosmos 1606 Rocket 4.0 19:43:16 40° ESE 19:43:33 40° E 19:47:43 10° NNE
STARLINK-1119 3.6 19:40:40 10° WNW 19:44:47 69° SSW 19:45:48 47° SE
STARLINK-1241 3.4 19:41:43 10° WSW 19:45:44 85° SSE 19:47:06 40° ENE
STARLINK-1233 3.0 19:42:49 10° W 19:45:58 70° NNW 19:46:21 60° NE
STARLINK-1212 3.0 19:43:17 10° W 19:46:25 70° NNW 19:46:46 61° NNE
STARLINK-1105 3.0 19:43:43 10° W 19:46:51 70° NNW 19:47:13 61° NNE
STARLINK-1206 3.0 19:44:13 10° W 19:47:20 69° NNW 19:47:38 63° NNE
STARLINK-1247 3.0 19:44:39 10° W 19:47:46 69° NNW 19:48:03 63° NNE
Resurs 1-3 4.2 19:44:43 16° S 19:48:04 57° W 19:52:24 10° NNW
ISS -3.9 19:44:42 10° WNW 19:48:04 74° SSW 19:48:11 72° S
STARLINK-1227 3.0 19:45:05 10° W 19:48:12 69° NNW 19:48:30 63° NNE
ATLAS CENTAUR R/B 4.2 19:46:55 10° NNW 19:48:30 12° N 19:50:03 10° NNE
STARLINK-1218 3.0 19:45:34 10° W 19:48:40 68° NNW 19:48:55 64° NNE
Cosmos 2154 Rocket 4.1 19:42:25 10° N 19:48:43 57° ENE 19:51:33 32° SE
STARLINK-1226 3.0 19:46:02 10° W 19:49:09 68° NNW 19:49:23 64° NNE
STARLINK-1254 3.0 19:46:26 10° W 19:49:34 68° NNW 19:49:48 64° NNE
ERS-1 Rocket 3.8 19:48:48 31° E 19:49:43 34° ENE 19:54:13 10° N
STARLINK-1114 3.7 19:45:40 10° WNW 19:49:47 65° SSW 19:50:36 51° SSE
STARLINK-1215 3.0 19:46:55 10° W 19:50:02 67° NNW 19:50:14 65° NNE
Cosmos 1758 4.2 19:46:19 10° SSW 19:50:19 51° WNW 19:54:20 10° N
STARLINK-1239 3.4 19:46:18 10° WSW 19:50:20 89° SSE 19:51:30 45° ENE
STARLINK-1231 3.0 19:47:22 10° W 19:50:29 67° NNW 19:50:39 65° N
STARLINK-1232 3.0 19:48:16 10° W 19:51:23 67° NNW 19:51:31 65° N
USA 245 4.2 19:50:07 39° SE 19:51:48 59° ENE 19:57:32 10° N
STARLINK-1217 3.1 19:48:44 10° W 19:51:50 66° NNW 19:51:58 65° N
STARLINK-1208 3.1 19:49:09 10° W 19:52:17 66° NNW 19:52:25 65° N
STARLINK-1229 3.1 19:49:38 10° W 19:52:44 66° NNW 19:52:49 65° N
BREEZE-M DEB (TANK) 3.2 19:46:56 10° W 19:52:49 65° SSW 19:53:10 59° SSE
STARLINK-1271 3.1 19:50:06 10° W 19:53:12 66° NNW 19:53:16 65° N
STARLINK-1270 3.1 19:50:33 10° W 19:53:40 65° NNW 19:53:42 65° N
STARLINK-1154 3.1 19:50:59 10° W 19:54:05 65° NNW 19:54:07 65° N
STARLINK-1130 (DARKSAT) 3.7 19:50:38 10° WNW 19:54:44 61° SSW 19:55:22 53° SSE
STARLINK-1240 3.4 19:50:54 10° WSW 19:54:56 88° NNW 19:55:56 50° ENE
STARLINK-1197 3.1 19:51:54 10° W 19:54:59 65° NNW 19:54:59 65° NNW
Cosmos 2369 Rocket 2.2 19:49:33 10° NNW 19:55:18 85° WSW 19:57:50 35° SSE
Resurs 01 Rocket 1.9 19:53:05 27° S 19:55:24 67° WSW 19:59:49 10° NNW
STARLINK-1189 3.1 19:52:21 10° W 19:55:26 64° NNW 19:55:26 64° NNW
SPOT 5 3.7 19:56:05 28° ENE 19:56:05 28° ENE 19:59:50 10° N
STARLINK-1187 3.2 19:53:12 10° W 19:56:19 61° NNW 19:56:20 61° N
STARLINK-1188 3.2 19:53:14 10° W 19:56:17 64° NNW 19:56:17 64° NNW
STARLINK-1198 3.2 19:53:29 10° W 19:56:31 63° NNW 19:56:31 63° NNW
STARLINK-1235 3.3 19:53:55 10° W 19:57:02 58° NNW 19:57:05 58° N
STARLINK-1199 3.2 19:55:11 10° W 19:58:13 63° NNW 19:58:13 63° NNW
STARLINK-67 4.1 19:56:14 10° W 19:58:04 34° NW 19:58:04 34° NW
STARLINK-1191 3.3 19:55:39 10° W 19:58:39 62° NNW 19:58:39 62° NNW
Cosmos 2263 4.1 19:53:22 10° NNW 19:59:02 79° ENE 20:01:00 42° SE
STARLINK-1210 3.3 19:56:05 10° W 19:59:04 62° NNW 19:59:04 62° NNW
STARLINK-1216 3.5 19:55:32 10° WSW 19:59:33 85° NNW 20:00:22 55° ENE
STARLINK-1221 3.3 19:56:34 10° W 19:59:32 61° NNW 19:59:32 61° NNW
STARLINK-1084 3.8 19:55:37 10° WNW 19:59:41 58° SSW 20:00:09 54° S
STARLINK-1219 3.3 19:57:00 10° W 19:59:57 61° NNW 19:59:57 61° NNW
STARLINK-1222 3.3 19:57:27 10° W 20:00:23 60° NW 20:00:23 60° NW
STARLINK-1211 3.4 19:57:55 10° W 20:00:48 59° NW 20:00:48 59° NW
Cosmos 1908 4.4 20:02:47 30° NE 20:02:47 30° NE 20:05:04 10° NNE
STARLINK-1214 3.4 19:58:22 10° W 20:01:15 59° NW 20:01:15 59° NW
STARLINK-1245 3.4 19:58:52 10° W 20:01:40 57° NW 20:01:40 57° NW
STARLINK-1238 3.4 19:59:17 10° W 20:02:07 58° NW 20:02:07 58° NW
STARLINK-1205 3.5 20:00:13 10° W 20:02:59 55° NW 20:02:59 55° NW
STARLINK-1204 3.5 20:00:39 10° W 20:03:23 55° NW 20:03:23 55° NW
STARLINK-1237 3.5 20:00:11 10° WSW 20:04:13 82° NNW 20:04:52 61° ENE
STARLINK-1098 3.8 20:00:36 10° WNW 20:04:39 54° SSW 20:04:55 53° SSW
Cosmos 1726 2.1 20:06:29 75° SSW 20:06:46 84° W 20:10:33 10° N
Landsat 7 3.8 20:06:34 55° ESE 20:07:17 63° ENE 20:12:00 10° N
STARLINK-1202 3.5 20:04:49 10° WSW 20:08:51 79° NNW 20:09:19 67° NE
STARLINK-1123 4.0 20:05:36 10° WNW 20:09:38 51° SSW 20:09:44 51° SSW
Nadezhda 1 Rocket 4.0 20:06:17 29° S 20:09:40 68° E 20:16:01 10° NNE
Cosmos 921 Rocket 4.3 20:06:13 10° N 20:09:20 26° NE 20:09:20 26° NE
Cosmos 2228 2.9 20:11:03 70° E 20:11:03 70° E 20:15:16 10° NNE
MOS 1 Rocket 3.8 20:06:41 10° N 20:11:49 68° WNW 20:17:09 10° SSW
SAR-Lupe-2 3.8 20:09:16 10° NNE 20:12:22 64° N 20:12:22 64° N
CZ-4C R/B 4.3 20:08:25 10° NW 20:13:27 26° N 20:19:16 10° NE
STARLINK-1246 3.6 20:09:55 10° WSW 20:13:59 76° NNW 20:14:18 70° NNE
STARLINK-1097 4.1 20:10:35 10° WNW 20:14:29 47° SW 20:14:29 47° SW
STARLINK-1099 4.3 20:15:35 10° WNW 20:19:17 44° SW 20:19:17 44° SW
Cosmos 1943 3.2 20:19:28 56° SE 20:19:50 57° ESE 20:25:24 10° NE
Cosmos 1943 Rocket 3.0 20:15:09 10° NW 20:20:23 44° WSW 20:22:51 28° SSW
Cosmos 2074 Rocket 4.5 20:16:24 10° NNW 20:22:32 58° W 20:26:45 21° SSW
STARLINK-1224 3.7 20:18:49 10° W 20:22:44 71° NNW 20:22:44 71° NNW
Cosmos 2058 Rocket 3.8 20:24:09 41° NE 20:24:09 41° NE 20:27:24 10° NNE
NOSS 3-4 (A) 3.9 20:16:42 10° NW 20:23:30 66° NE 20:25:57 43° ESE
NOSS 3-4 (C) 3.9 20:16:48 10° NW 20:23:36 65° NE 20:26:03 43° ESE
STARLINK-1104 4.5 20:20:36 10° WNW 20:24:04 40° SW 20:24:04 40° SW
Cosmos 1328 4.0 20:22:48 10° NNW 20:26:44 65° W 20:26:44 65° W
STARLINK-1225 3.8 20:23:32 10° W 20:27:17 66° NW 20:27:17 66° NW
STARLINK-1203 3.9 20:25:14 10° W 20:28:44 60° NW 20:28:44 60° NW
STARLINK-1230 4.0 20:28:11 10° W 20:31:44 60° WNW 20:31:44 60° WNW
Cosmos 1953 3.9 20:29:29 15° SW 20:32:19 33° WNW 20:35:58 10° N
SPOT 1/Viking Rocket 3.4 20:32:06 68° SSE 20:32:47 90° ENE 20:38:03 10° NNW
NOSS 3-3 (A) 3.8 20:28:20 10° SSW 20:34:12 72° SE 20:40:54 10° NE
NOSS 3-3 (C) 3.8 20:28:27 10° SSW 20:34:19 72° SE 20:41:00 10° NE
Spot 2 Rocket 3.9 20:33:06 44° SSW 20:34:27 60° WSW 20:39:32 10° NNW
SL-16 R/B 3.8 20:31:34 10° WSW 20:36:45 35° NW 20:41:56 10° NNE
STARLINK-1243 4.2 20:32:54 10° W 20:36:16 55° WNW 20:36:16 55° WNW
STARLINK-1236 4.4 20:37:35 10° W 20:40:46 49° WNW 20:40:46 49° WNW
IGS 5A 3.9 20:42:14 60° WNW 20:42:14 60° WNW 20:46:00 10° NNW
Terra 2.2 20:49:37 55° NNE 20:49:37 55° NNE 20:53:36 10° N
CARTOSAT-1 4.1 20:50:52 56° NNW 20:50:52 56° NNW 20:54:20 10° NNW
Cosmos 2341 Rocket 3.9 20:46:27 10° N 20:52:51 89° WSW 20:53:51 66° S
Cosmos 1726 Rocket 4.3 20:55:09 51° WNW 20:55:09 51° WNW 20:59:29 10° N
ATLAS 2AS CENTAUR R/B 2.7 20:48:38 10° NW 20:56:23 88° SW 20:57:42 64° SE
USA 234 3.5 20:50:45 10° ENE 20:57:14 68° NNW 21:03:43 10° WSW
Cosmos 1603 3.9 20:53:25 15° SW 20:58:02 67° WNW 21:03:40 10° NNE
APEX 4.3 20:58:41 10° NNW 21:05:43 86° WSW 21:06:05 80° S
CZ-2C R/B 4.4 21:02:32 10° N 21:06:54 28° WNW 21:11:13 10° WSW
Cosmos 1980 Rocket 4.4 21:04:00 10° N 21:07:08 15° NNE 21:09:09 13° NE
Aureole 1 Rocket 4.2 21:07:14 55° SSW 21:09:10 84° ESE 21:15:43 10° NNE
COSMOS 2455 2.9 21:05:11 10° NNW 21:11:09 68° NE 21:11:09 68° NE
Iridium 4 Rocket 4.3 21:09:00 10° N 21:11:53 38° N 21:11:53 38° N
Cosmos 1461 4.2 21:12:08 10° NW 21:15:09 41° NNW 21:15:09 41° NNW
Cosmos 2218 Rocket 3.9 21:15:21 10° N 21:21:25 85° NW 21:21:25 85° NW
ERS-1 Rocket 4.0 21:28:47 39° W 21:28:47 39° W 21:33:11 10° NNW
ATLAS CENTAUR R/B 4.0 21:27:02 10° NNW 21:29:08 14° NNE 21:29:16 14° NNE
Cosmos 2181 Rocket 4.0 21:33:10 78° WNW 21:33:10 78° WNW 21:39:20 10° N
SPOT 5 4.2 21:35:18 31° WNW 21:35:18 31° WNW 21:38:11 10° NNW
Cosmos 2369 Rocket 4.3 21:35:12 10° WNW 21:38:27 16° W 21:39:39 15° WSW
CZ-4C R/B 3.9 21:57:46 10° NW 22:03:52 37° NNE 22:06:33 29° ENE
Mayak 1.2 22:05:34 10° N 22:06:55 20° N 22:06:55 20° N
Terra 4.2 22:28:29 17° WNW 22:28:29 17° WNW 22:30:27 10° NW
Cosmos 1697 Rocket 3.8 22:22:05 10° NNW 22:26:03 41° N 22:26:03 41° N
SL-16 R/B 4.4 22:24:14 10° N 22:27:59 18° NNE 22:29:37 16° NE
USA 234 4.0 22:33:34 10° ENE 22:39:50 50° N 22:46:05 10° WNW
Cosmos 2322 Rocket 4.4 22:39:13 10° N 22:43:06 18° NE 22:44:37 17° NE
ATLAS 2AS CENTAUR R/B 4.4 22:40:41 10° WNW 22:45:08 23° W 22:45:08 23° W
Cosmos 1980 Rocket 3.5 22:47:09 10° NNW 22:50:54 37° N 22:50:54 37° N
Cosmos 2082 Rocket 4.1 23:15:19 22° NE 23:15:19 22° NE 23:17:28 10° NE
SL-16 R/B 4.1 23:21:37 26° ENE 23:22:25 27° NE 23:27:28 10° N
ATLAS 5 CENTAUR R/B 3.9 23:39:11 24° NNE 23:39:11 24° NNE 23:41:45 10° NE
Cosmos 1833 Rocket 4.0 23:45:10 36° NNE 23:45:10 36° NNE 23:48:27 10° NNE
CZ-2D R/B 4.2 23:51:24 10° NE 23:54:16 20° ENE 23:54:16 20° ENE
